Regional Weather Roundup
Issued by NWS Columbia, SC

Home | Current Version | Previous Version | Text Only | Print | Product List | Glossary On
Versions: 1 2 3 4 5 6 7 8 9 10 11 12 13 14 15 16 17 18 19 20 21 22 23 24 25 26 27 28 29 30 31 32 33 34 35 36 37 38 39 40 41 42 43 44 45 46 47 48 49 50
000
ASUS42 KCAE 212210
RWRCAE
REGIONAL WEATHER ROUNDUP
NATIONAL WEATHER SERVICE COLUMBIA SC
500 PM EST SAT JAN 21 2017

NOTE: "FAIR" INDICATES FEW OR NO CLOUDS BELOW 12,000 FEET WITH NO
SIGNIFICANT WEATHER AND/OR OBSTRUCTIONS TO VISIBILITY.

NOT ALL STATIONS ARE QUALITY CONTROLLED BY THE NATIONAL
WEATHER SERVICE. USE DATA WITH CAUTION...ESPECIALLY
DEWPOINT OBSERVATIONS.

SCZ001>056-GAZ040-063>065-077-212300-
...UPSTATE SOUTH CAROLINA...

CITY           SKY/WX    TMP DP  RH WIND       PRES   REMARKS
ANDERSON       CLOUDY    57  55  93 NE13      29.62F
LIBERTY        MOCLDY    57  55  95 NE8       29.64S
SPARTANBURG    CLOUDY    54  54 100 NE6       29.65F
CLEMSON        CLOUDY    60  55  83 NE6       29.65R
GREENVILLE     LGT RAIN  57  54  89 NE13      29.65S
GREENWOOD      CLOUDY    58  56  93 NE7       29.62F
GREER          CLOUDY    56  54  93 NE10      29.64F
ROCK HILL      LGT RAIN  55  54  96 E12G20    29.63F FOG
CHESTER        LGT RAIN  55  55 100 NE14G20   29.67F
LAURENS        CLOUDY    55  55 100 E8G21     29.64F


...CENTRAL SOUTH CAROLINA...

CITY           SKY/WX    TMP DP  RH WIND       PRES   REMARKS
COLUMBIA APT   CLOUDY    66  64  93 SE18G25   29.60F
COLUMBIA OWENS MOCLDY    66  64  93 SE9G24    29.61F
MCENTIRE ANGB  LGT RAIN  64  64 100 E21G26    29.61F FOG
ORANGEBURG     LGT RAIN  65  63  93 E10       29.68R
SUMTER SHAW    RAIN      64  64 100 CALM      29.71R FOG
NEWBERRY       LGT RAIN  59  59 100 E3        29.66F
AIKEN          FAIR      63  61  94 SE8       29.64R
BARNWELL       DRIZZLE   64  63  94 SE8       29.67F
MANNING        TSTM      64  63  94 SE3       29.70S
CAMDEN         LGT RAIN  63  63 100 E14G21    29.65F
LANCASTER      CLOUDY    57  57 100 N6        29.69F FOG
WINNSBORO      CLOUDY    61  61 100 N5        29.65R


...EASTERN AND COASTAL SOUTH CAROLINA...

CITY           SKY/WX    TMP DP  RH WIND       PRES   REMARKS
MYRTLE BEACH   FOG       64  61  88 S9        29.77S VSB 1/2
N MYRTLE BCH   FOG       61  61 100 S9        29.75S VSB 1/4
CONWAY         CLOUDY    63  63 100 SE5       29.74F FOG
MARION         CLOUDY    63  61  94 SE6       29.73F
HARTSVILLE     CLOUDY    61  61 100 E5        29.71S VSB 1
FLORENCE       CLOUDY    66  64  93 SE10      29.71F
DARLINGTON     CLOUDY    61  61 100 E6        29.71F FOG
CHARLESTON APT TSTM      66  62  87 SW14G29   29.72R
MOUNT PLEASANT LGT RAIN  66  64  94 SE6       29.71F
WALTERBORO     CLOUDY    61  59  94 SW14G29   29.75R
BEAUFORT       TSTM      62  60  93 S7        29.76F FOG


...EASTERN GEORGIA...

CITY           SKY/WX    TMP DP  RH WIND       PRES   REMARKS
AUGUSTA BUSH F CLOUDY    66  58  75 NW13G21   29.61F
AUGUSTA DANIEL CLOUDY    66  55  67 SW8       29.61F
THOMSON        CLOUDY    65  62  88 W8        29.65R
WASHINGTON     CLOUDY    63  63 100 NW6       29.61R
CLAXTON        RAIN     N/A N/A N/A S5        29.75S
SYLVANIA       LGT RAIN N/A N/A N/A S3        29.72S
STATESBORO     RAIN      62  32  32 S7        29.72F
SAVANNAH       LGT RAIN  62  58  86 S8        29.78F


...SOUTHERN NORTH CAROLINA...

CITY           SKY/WX    TMP DP  RH WIND       PRES   REMARKS
CHARLOTTE      RAIN      55  53  93 NE10G20   29.70F VSB 1
MONROE         HVY RAIN  56  54  93 NW7       29.70F FOG
WADESBORO      RAIN      59  58  95 E5        29.71F
ROCKINGHAM     CLOUDY    59  59 100 E3        29.72F FOG
RUTHERFORDTON  CLOUDY    54  54 100 CALM      29.70R
ASHEVILLE      CLOUDY    53  49  86 CALM      29.69S

$$



USA.gov is the U.S. government's official web portal to all federal, state and local government web resources and services.